Weather Roundup
Issued by NWS

Home | Current Version | Previous Version | Graphics & Text | Print | Product List | Glossary Off
Versions: 1 2 3 4 5 6 7 8 9 10 11 12 13 14 15 16 17 18 19 20 21 22 23 24 25 26 27 28 29 30 31 32 33 34 35 36 37 38 39 40 41 42 43 44 45 46 47 48 49 50

954
NZUS93 KARX 272059
HRRWXR

CURRENT HOURLY OBSERVATIONS ACROSS
MUCH OF THE UPPER MISSISSIPPI VALLEY
NATIONAL WEATHER SERVICE LA CROSSE WI
300 PM CST MON FEB 27 2017


...SOUTHEAST MINNESOTA...


CITY           SKY/WX    TMP DP  RH WIND       PRES   REMARKS
ROCHESTER      SUNNY     38  28  67 S10       29.94F WCI  31
ROCHESTER/MAYO FAIR      40  26  55 SE9       29.94F WCI  34
WINONA         SUNNY     46  21  36 S5        29.98F
AUSTIN         CLOUDY    39  28  65 S6        29.93F WCI  35
ALBERT LEA     CLOUDY    37  27  65 SE7       29.92S WCI  32
DODGE CENTER   NOT AVBL
PRESTON        SUNNY     40  29  65 SE12      29.95F WCI  33
OWATONNA       CLOUDY    39  25  56 SE10      29.92F WCI  32
FARIBAULT      CLOUDY    39  25  56 S8        29.93S WCI  34
$$

...ELSEWHERE IN MINNESOTA...


CITY           SKY/WX    TMP DP  RH WIND       PRES   REMARKS
MINNEAPOLIS    CLOUDY    44  19  36 S12       29.91F
INTNL FALLS    CLOUDY    28   8  43 CALM      29.88F
DULUTH         MOSUNNY   31  23  72 SE6       29.89F WCI  25
RED WING       CLOUDY    41  19  42 SE6       29.94F
REDWOOD FALLS  CLOUDY    47  21  35 S15       29.82F
MANKATO          N/A     39  26  59 S13       29.90F WCI  31
WORTHINGTON    MOSUNNY   43  24  47 S16       29.83F
FAIRMONT       NOT AVBL
$$

...SOUTHWEST WISCONSIN...


CITY           SKY/WX    TMP DP  RH WIND       PRES   REMARKS
LA CROSSE      SUNNY     47  27  45 S12       29.98F
PRAIRIE DU CHI SUNNY     49  31  50 S7        30.00F
BOSCOBEL       MOSUNNY   50  33  52 SW9       30.01F
LONE ROCK      NOT AVBL
PLATTEVILLE    MOSUNNY   49  37  61 S16       30.01F
FORT MC COY    SUNNY     45  25  46 S8        30.00F
MAUSTON-NEW LI CLEAR     44  29  55 S7        30.00F
VIROQUA        FAIR      43  31  62 S9        29.98F
WIS DELLS      MOSUNNY   44  31  59 S5        30.02F
$$

...ELSEWHERE IN WISCONSIN...


CITY           SKY/WX    TMP DP  RH WIND       PRES   REMARKS
MILWAUKEE      PTSUNNY   44  32  62 SE9       30.08F
MADISON        PTSUNNY   48  29  47 SW8G16    30.02F
GREEN BAY      MOSUNNY   40  28  62 S14       30.06F WCI  32
EAU CLAIRE     NOT AVBL
BLACK RVR FLS  FAIR      47  13  26 SW6       29.98F
MEDFORD        CLOUDY    37  18  47 S7        29.97F WCI  31
WAUSAU         CLOUDY    39  18  42 S9        29.98F WCI  33
WIS RAPIDS     SUNNY     44  19  36 SW12      30.01F
MARSHFIELD     MOSUNNY   40  21  46 S9        29.97F WCI  34
RICE LAKE      SUNNY     40  18  41 S13       29.95F WCI  33
$$

...NORTHEAST IOWA...


CITY           SKY/WX    TMP DP  RH WIND       PRES   REMARKS
WATERLOO       SUNNY     51  27  39 S14       29.96F
DUBUQUE        SUNNY     49  30  48 S15       29.99F
DECORAH        SUNNY     45  32  61 S9        29.96F
MASON CITY     CLOUDY    37  30  75 SE12      29.94F WCI  29
CHARLES CITY   SUNNY     41  34  75 S9        29.95F
OELWEIN        SUNNY     50  34  53 S10G16    29.97F
$$

...ELSEWHERE IN IOWA...


CITY           SKY/WX    TMP DP  RH WIND       PRES   REMARKS
DES MOINES     CLOUDY    56  26  31 SE16      29.91F
IOWA CITY      CLOUDY    55  28  35 S10G20    29.99F
FORT DODGE     CLOUDY    45  28  53 SE8       29.90F
MARSHALLTOWN   SUNNY     52  33  48 S14       29.94F
CEDAR RAPIDS   CLOUDY    53  29  39 S13       29.97F
$$

...NORTHERN ILLINOIS...


CITY           SKY/WX    TMP DP  RH WIND       PRES   REMARKS
CHICAGO-OHARE  PTSUNNY   53  33  46 S10       30.08F
CHICAGO-MIDWAY PTSUNNY   54  31  41 SW12G18   30.08F
MOLINE         MOSUNNY   55  31  39 VRB7G20   30.01F
ROCKFORD       PTSUNNY   51  32  48 SW5       30.08S
PEORIA         PTSUNNY   58  34  40 S13       30.03F
$$

NOTE: "FAIR" INDICATES FEW OR NO CLOUDS BELOW 12,000 FEET WITH NO
SIGNIFICANT WEATHER AND/OR OBSTRUCTIONS TO VISIBILITY. WIND
SPEEDS ARE IN MILES-PER-HOUR.




USA.gov is the U.S. government's official web portal to all federal, state and local government web resources and services.